Weather History for Reading, PA

Change the Weather History Date:

Sunday, June 30, 2013

  Actual Average Record
Temperature  
Mean Temperature 77 °F 74 °F  
Max Temperature 84 °F 85 °F 98 °F (1964)
Min Temperature 69 °F 64 °F 47 °F (1988)
Degree Days  
Heating Degree Days 0 0  
Month to date heating degree days 2 23  
Since 1 June heating degree days 2 24  
Since 1 July heating degree days 4990 5392  
Cooling Degree Days 12 9  
Month to date cooling degree days 241 189  
Year to date cooling degree days 340 249  
Since 1 June cooling degree days 241 189  
Growing Degree Days 26 (Base 50)    
Moisture  
Dew Point 69 °F    
Average Humidity 80    
Maximum Humidity 97    
Minimum Humidity 63    
Precipitation  
Precipitation 0.31 in 0.13 in 2.90 in (1939)
Month to date precipitation 6.21 3.78  
Year to date precipitation 19.25 20.80  
Sea Level Pressure  
Sea Level Pressure 29.79 in    
Wind  
Wind Speed 4 mph (ESE)    
Max Wind Speed 17 mph    
Max Gust Speed 23 mph    
Visibility 10 miles    
Events Rain , Thunderstorm    
T = Trace of Precipitation, MM = Missing Value Source: NWS Daily Summary

Daily Weather History Graph

Daily Weather History Graph

Search for Another Location

Airport:

Trip Planner

Search our weather history database for the weather conditions in past years. The results will help you decide how hot, cold, wet, or windy it might be!

Date:

Astronomy

Jun. 30, 2013 Rise Set
Actual Time 5:37 AM EDT 8:37 PM EDT
Civil Twilight 5:04 AM EDT 9:10 PM EDT
Nautical Twilight 4:22 AM EDT 9:52 PM EDT
Astronomical Twilight 3:33 AM EDT 10:41 PM EDT
Moon 12:35 AM EDT (6/30) 1:49 PM EDT (6/30)
Length of Visible Light 16h 06m
Length of Day
15h 00m
Last Quarter, 45% of the Moon is Illuminated
Jun 30
Last Quarter
Jul 8
New
Jul 15
First Quarter
Jul 22
Full
Jul 29
Last Quarter

Hourly Weather History & Observations

Time (EDT) Temp. Heat Index Dew Point Humidity Pressure Visibility Wind Dir Wind Speed Gust Speed Precip Events Conditions
12:54 AM 70.0 °F - 68.0 °F 93% 29.72 in 10.0 mi ESE 4.6 mph - 0.07 in   Mostly Cloudy
1:54 AM 71.1 °F - 68.0 °F 90% 29.72 in 10.0 mi Calm Calm - N/A   Clear
2:33 AM 69.8 °F - 68.0 °F 94% 29.72 in 9.0 mi Calm Calm - N/A   Mostly Cloudy
2:54 AM 70.0 °F - 68.0 °F 93% 29.73 in 7.0 mi Calm Calm - N/A   Mostly Cloudy
3:28 AM 69.8 °F - 68.0 °F 94% 29.71 in 7.0 mi Calm Calm - N/A   Scattered Clouds
3:54 AM 69.1 °F - 66.9 °F 93% 29.72 in 10.0 mi Calm Calm - N/A   Partly Cloudy
4:06 AM 69.8 °F - 66.2 °F 88% 29.71 in 10.0 mi Calm Calm - N/A   Mostly Cloudy
4:46 AM 69.8 °F - 66.2 °F 88% 29.73 in 10.0 mi Calm Calm - N/A   Partly Cloudy
4:54 AM 69.1 °F - 66.9 °F 93% 29.74 in 10.0 mi Calm Calm - N/A   Scattered Clouds
5:03 AM 69.8 °F - 66.2 °F 88% 29.73 in 10.0 mi Calm Calm - N/A   Mostly Cloudy
5:54 AM 69.1 °F - 66.9 °F 93% 29.75 in 10.0 mi Calm Calm - N/A   Scattered Clouds
6:54 AM 71.1 °F - 68.0 °F 90% 29.77 in 10.0 mi Calm Calm - N/A   Scattered Clouds
7:14 AM 71.6 °F - 68.0 °F 88% 29.77 in 10.0 mi Calm Calm - N/A   Mostly Cloudy
7:33 AM 71.6 °F - 69.8 °F 94% 29.77 in 9.0 mi Calm Calm - N/A   Mostly Cloudy
7:54 AM 73.0 °F - 69.1 °F 87% 29.79 in 8.0 mi Calm Calm - N/A   Partly Cloudy
8:17 AM 73.4 °F - 69.8 °F 88% 29.80 in 10.0 mi Calm Calm - N/A   Mostly Cloudy
8:42 AM 75.2 °F - 69.8 °F 83% 29.80 in 10.0 mi Calm Calm - N/A   Mostly Cloudy
8:51 AM 75.2 °F - 71.6 °F 89% 29.80 in 10.0 mi Calm Calm - N/A   Scattered Clouds
8:54 AM 77.0 °F - 71.1 °F 82% 29.81 in 10.0 mi Calm Calm - N/A   Partly Cloudy
9:54 AM 79.0 °F - 72.0 °F 79% 29.80 in 10.0 mi Variable 4.6 mph - N/A   Mostly Cloudy
10:54 AM 81.0 °F 85.2 °F 72.0 °F 74% 29.80 in 10.0 mi Variable 3.5 mph - N/A   Mostly Cloudy
11:37 AM 80.6 °F 84.6 °F 71.6 °F 74% 29.79 in 10.0 mi Calm Calm - 0.00 in   Mostly Cloudy
11:54 AM 80.1 °F 84.5 °F 73.9 °F 81% 29.79 in 10.0 mi East 4.6 mph - 0.00 in   Mostly Cloudy
12:07 PM 73.4 °F - 69.8 °F 88% 29.78 in 2.0 mi NE 16.1 mph 23.0 mph 0.24 in Rain Rain
12:16 PM 71.6 °F - 68.0 °F 88% 29.79 in 6.0 mi NNE 10.4 mph 21.9 mph 0.24 in Rain Light Rain
12:54 PM 75.0 °F - 69.1 °F 82% 29.79 in 10.0 mi NNE 4.6 mph - 0.24 in Thunderstorm Mostly Cloudy
1:34 PM 78.8 °F - 69.8 °F 74% 29.78 in 10.0 mi ENE 9.2 mph - N/A   Partly Cloudy
1:54 PM 75.9 °F - 66.9 °F 74% 29.79 in 10.0 mi ENE 5.8 mph - N/A   Mostly Cloudy
2:54 PM 79.0 °F - 73.0 °F 82% 29.81 in 10.0 mi Variable 4.6 mph - 0.07 in   Mostly Cloudy
3:54 PM 82.0 °F 85.5 °F 69.1 °F 65% 29.81 in 10.0 mi SE 8.1 mph - N/A   Mostly Cloudy
4:54 PM 81.0 °F 84.4 °F 70.0 °F 69% 29.81 in 10.0 mi ESE 6.9 mph - N/A   Clear
5:54 PM 82.0 °F 84.9 °F 68.0 °F 62% 29.81 in 10.0 mi SSE 8.1 mph - N/A   Clear
6:54 PM 80.1 °F 82.7 °F 68.0 °F 67% 29.83 in 10.0 mi SSE 9.2 mph - N/A   Partly Cloudy
7:54 PM 78.1 °F - 70.0 °F 76% 29.84 in 10.0 mi ESE 4.6 mph - N/A   Clear
8:54 PM 77.0 °F - 70.0 °F 79% 29.86 in 10.0 mi SE 6.9 mph - N/A   Clear
9:54 PM 75.9 °F - 69.1 °F 79% 29.87 in 10.0 mi SSE 6.9 mph - N/A   Partly Cloudy
10:54 PM 75.9 °F - 70.0 °F 82% 29.89 in 10.0 mi SE 3.5 mph - N/A   Scattered Clouds
11:12 PM 75.2 °F - 69.8 °F 83% 29.88 in 10.0 mi SSE 6.9 mph - N/A   Mostly Cloudy
11:20 PM 75.2 °F - 69.8 °F 83% 29.88 in 10.0 mi SSE 4.6 mph - N/A   Scattered Clouds
11:54 PM 75.9 °F - 70.0 °F 82% 29.89 in 10.0 mi SE 4.6 mph - N/A   Mostly Cloudy